{"data":{"norad_id":64748,"epoch":"2026-05-25T03:02:32.402688Z","epoch_age_seconds":67527,"freshness":"FRESH","line1":"1 64748U 25144AA  26145.12676392  .00019006  00000+0  65192-3 0  9990","line2":"2 64748  53.1579 186.0679 0001077  78.6970 281.4151 15.30212538 51413","mean_motion":15.30212538,"eccentricity":0.0001077,"inclination_deg":53.1579,"raan_deg":186.0679,"arg_perigee_deg":78.697,"mean_anomaly_deg":281.4151,"bstar":0.00065192,"rev_number":5141,"period_min":94.104574641774,"perigee_km":474.4395314809,"apogee_km":475.91573545295,"semimajor_km":6853.3146334669,"source":"CELESTRAK","updated_at":"2026-05-25T13:38:20.550864Z"}}